When you browse on this site, cookies collect data to enhance your experience and personalize the content and advertising you see.
Visit our Privacy Policy to learn more. By continuing to use the site, you agree to this use of cookies and data.
  • In Deutschland
  • Länderverzeichnis
  • Für 7 Tage
  • Wassertemperatur
  • Wetterkarte
  • Widgets
  • user-avatar
    Anmelden

    Stündliche Wetter Sidi Bu-l-Abbas

    Heute, 18 Oktober, Freitag

    Zeit Temperatur Niederschläge Wind Luftdruck Luftfeuchtigkeit
    00:00 +18°C° 0 mm 0 m/S 722 mmHg 72%
    01:00 +17°C° 0 mm 0 m/S 722 mmHg 74%
    02:00 +17°C° 0 mm 0 m/S 722 mmHg 75%
    03:00 +16°C° 0 mm 0 m/S 721 mmHg 77%
    04:00 +16°C° 0 mm 0 m/S 721 mmHg 78%
    05:00 +16°C° 0 mm 0 m/S 721 mmHg 79%
    06:00 +15°C° 0 mm 0 m/S 721 mmHg 81%
    07:00 +17°C° 0 mm 0 m/S 721 mmHg 72%
    08:00 +19°C° 0 mm 0 m/S 722 mmHg 64%
    09:00 +21°C° 0 mm 0 m/S 722 mmHg 56%
    10:00 +24°C° 0 mm 1 m/S 722 mmHg 49%
    11:00 +25°C° 0 mm 1 m/S 722 mmHg 43%
    12:00 +26°C° 0 mm 2 m/S 722 mmHg 36%
    13:00 +27°C° 0 mm 2 m/S 722 mmHg 35%
    14:00 +27°C° 0 mm 3 m/S 721 mmHg 33%
    15:00 +27°C° 0 mm 3 m/S 721 mmHg 31%
    16:00 +26°C° 0 mm 3 m/S 720 mmHg 33%
    17:00 +25°C° 0 mm 2 m/S 720 mmHg 36%
    18:00 +23°C° 0 mm 1 m/S 720 mmHg 38%
    19:00 +23°C° 0 mm 1 m/S 720 mmHg 41%
    20:00 +22°C° 0 mm 1 m/S 720 mmHg 43%
    21:00 +19°C° 0 mm 0 m/S 720 mmHg 46%
    22:00 +19°C° 0 mm 0 m/S 720 mmHg 47%
    23:00 +19°C° 0 mm 0 m/S 719 mmHg 47%

    Morgen, 19 Oktober, Samstag

    Zeit Temperatur Niederschläge Wind Luftdruck Luftfeuchtigkeit
    00:00 +21°C° 0 mm 1 m/S 719 mmHg 48%
    01:00 +20°C° 0 mm 1 m/S 719 mmHg 50%
    02:00 +18°C° 0 mm 0 m/S 718 mmHg 52%
    03:00 +18°C° 0 mm 0 m/S 718 mmHg 54%
    04:00 +19°C° 0 mm 1 m/S 718 mmHg 55%
    05:00 +19°C° 0 mm 1 m/S 718 mmHg 55%
    06:00 +19°C° 0 mm 1 m/S 718 mmHg 56%
    07:00 +20°C° 0 mm 1 m/S 718 mmHg 50%
    08:00 +21°C° 0 mm 2 m/S 718 mmHg 44%
    09:00 +24°C° 0 mm 2 m/S 719 mmHg 38%
    10:00 +25°C° 0 mm 3 m/S 719 mmHg 37%
    11:00 +26°C° 0 mm 3 m/S 718 mmHg 35%
    12:00 +27°C° 0 mm 4 m/S 718 mmHg 34%
    13:00 +27°C° 0 mm 4 m/S 718 mmHg 36%
    14:00 +27°C° 0 mm 4 m/S 717 mmHg 38%
    15:00 +27°C° 0 mm 3 m/S 717 mmHg 41%
    16:00 +26°C° 0 mm 3 m/S 717 mmHg 45%
    17:00 +25°C° 0 mm 2 m/S 716 mmHg 50%
    18:00 +24°C° 0 mm 1 m/S 716 mmHg 55%
    19:00 +23°C° 0 mm 1 m/S 717 mmHg 56%
    20:00 +23°C° 0 mm 1 m/S 717 mmHg 57%
    21:00 +23°C° 0 mm 1 m/S 717 mmHg 58%
    22:00 +22°C° 0 mm 1 m/S 717 mmHg 60%
    23:00 +22°C° 0 mm 1 m/S 717 mmHg 61%

    übermorgen, 20 Oktober, Sonntag

    Zeit Temperatur Niederschläge Wind Luftdruck Luftfeuchtigkeit
    00:00 +21°C° 0 mm 1 m/S 717 mmHg 63%
    01:00 +21°C° 0 mm 1 m/S 717 mmHg 64%
    02:00 +21°C° 0 mm 1 m/S 717 mmHg 65%
    03:00 +20°C° 0 mm 1 m/S 716 mmHg 66%
    04:00 +20°C° 0 mm 1 m/S 716 mmHg 68%
    05:00 +20°C° 0 mm 1 m/S 716 mmHg 71%
    06:00 +19°C° 0 mm 1 m/S 716 mmHg 74%
    07:00 +20°C° 0 mm 2 m/S 717 mmHg 70%
    08:00 +21°C° 0 mm 2 m/S 717 mmHg 66%
    09:00 +22°C° 0 mm 3 m/S 718 mmHg 61%
    10:00 +22°C° 0 mm 3 m/S 718 mmHg 59%
    11:00 +23°C° 0 mm 4 m/S 718 mmHg 58%
    12:00 +25°C° 0 mm 5 m/S 717 mmHg 56%
    13:00 +23°C° 0 mm 5 m/S 717 mmHg 60%
    14:00 +22°C° 0 mm 4 m/S 717 mmHg 64%
    15:00 +21°C° 0 mm 4 m/S 717 mmHg 69%
    16:00 +20°C° 0.8 mm 4 m/S 717 mmHg 74%
    17:00 +19°C° 0.8 mm 3 m/S 717 mmHg 78%
    18:00 +18°C° 0.8 mm 3 m/S 717 mmHg 83%
    19:00 +18°C° 1 mm 2 m/S 718 mmHg 84%
    20:00 +18°C° 1 mm 2 m/S 718 mmHg 85%
    21:00 +19°C° 1 mm 1 m/S 718 mmHg 86%
    22:00 +19°C° 0.4 mm 1 m/S 718 mmHg 86%
    23:00 +18°C° 0.4 mm 2 m/S 718 mmHg 86%

    21 Oktober, Montag

    Zeit Temperatur Niederschläge Wind Luftdruck Luftfeuchtigkeit
    00:00 +18°C° 0.4 mm 2 m/S 718 mmHg 86%
    01:00 +17°C° 0.8 mm 2 m/S 718 mmHg 87%
    02:00 +17°C° 0.8 mm 2 m/S 718 mmHg 89%
    03:00 +16°C° 0.8 mm 2 m/S 718 mmHg 90%
    04:00 +16°C° 0.5 mm 2 m/S 718 mmHg 90%
    05:00 +16°C° 0.5 mm 2 m/S 718 mmHg 90%
    06:00 +16°C° 0.5 mm 2 m/S 718 mmHg 90%
    07:00 +16°C° 0.1 mm 2 m/S 718 mmHg 89%
    08:00 +17°C° 0.1 mm 2 m/S 718 mmHg 88%
    09:00 +17°C° 0.1 mm 2 m/S 719 mmHg 88%
    10:00 +17°C° 0 mm 3 m/S 718 mmHg 86%
    11:00 +17°C° 0 mm 3 m/S 718 mmHg 84%
    12:00 +18°C° 0 mm 3 m/S 718 mmHg 82%
    13:00 +17°C° 0.5 mm 4 m/S 718 mmHg 84%
    14:00 +17°C° 0.5 mm 4 m/S 717 mmHg 86%
    15:00 +15°C° 0.5 mm 5 m/S 717 mmHg 88%
    16:00 +15°C° 4.5 mm 5 m/S 717 mmHg 90%
    17:00 +14°C° 4.5 mm 5 m/S 718 mmHg 91%
    18:00 +13°C° 4.5 mm 5 m/S 718 mmHg 93%
    19:00 +13°C° 4.3 mm 4 m/S 718 mmHg 93%
    20:00 +12°C° 4.3 mm 4 m/S 718 mmHg 93%
    21:00 +12°C° 4.3 mm 3 m/S 719 mmHg 93%
    22:00 +12°C° 3.3 mm 3 m/S 719 mmHg 93%
    23:00 +12°C° 3.3 mm 3 m/S 718 mmHg 93%

    22 Oktober, Dienstag

    Zeit Temperatur Niederschläge Wind Luftdruck Luftfeuchtigkeit
    00:00 +12°C° 3.3 mm 2 m/S 718 mmHg 92%
    01:00 +12°C° 2.7 mm 2 m/S 718 mmHg 90%
    02:00 +12°C° 2.7 mm 2 m/S 717 mmHg 88%
    03:00 +10°C° 2.7 mm 2 m/S 717 mmHg 85%
    04:00 +12°C° 0.3 mm 2 m/S 717 mmHg 82%
    05:00 +12°C° 0.3 mm 1 m/S 716 mmHg 79%
    06:00 +12°C° 0.3 mm 1 m/S 716 mmHg 75%
    07:00 +12°C° 0.2 mm 1 m/S 716 mmHg 74%
    08:00 +13°C° 0.2 mm 1 m/S 716 mmHg 72%
    09:00 +13°C° 0.2 mm 1 m/S 716 mmHg 70%
    10:00 +13°C° 0.2 mm 2 m/S 716 mmHg 71%
    11:00 +12°C° 0.2 mm 3 m/S 715 mmHg 72%
    12:00 +12°C° 0.2 mm 3 m/S 715 mmHg 73%
    13:00 +11°C° 0.2 mm 4 m/S 715 mmHg 76%
    14:00 +11°C° 0.2 mm 4 m/S 714 mmHg 79%
    15:00 +11°C° 0.2 mm 4 m/S 714 mmHg 81%
    16:00 +11°C° 0.4 mm 4 m/S 714 mmHg 82%
    17:00 +11°C° 0.4 mm 3 m/S 714 mmHg 83%
    18:00 +11°C° 0.4 mm 3 m/S 714 mmHg 84%
    19:00 +11°C° 0.7 mm 3 m/S 715 mmHg 81%
    20:00 +11°C° 0.7 mm 3 m/S 715 mmHg 77%
    21:00 +11°C° 0.7 mm 3 m/S 715 mmHg 74%
    22:00 +11°C° 0.4 mm 4 m/S 715 mmHg 74%
    23:00 +10°C° 0.4 mm 5 m/S 714 mmHg 74%

    23 Oktober, Mittwoch

    Zeit Temperatur Niederschläge Wind Luftdruck Luftfeuchtigkeit
    00:00 +10°C° 0.4 mm 6 m/S 714 mmHg 75%
    01:00 +10°C° 0.7 mm 7 m/S 714 mmHg 74%
    02:00 +10°C° 0.7 mm 8 m/S 713 mmHg 72%
    03:00 +11°C° 0.7 mm 9 m/S 713 mmHg 71%
    04:00 +10°C° 0.3 mm 8 m/S 713 mmHg 70%
    05:00 +10°C° 0.3 mm 8 m/S 713 mmHg 69%
    06:00 +10°C° 0.3 mm 8 m/S 714 mmHg 67%
    07:00 +11°C° 0.1 mm 9 m/S 714 mmHg 65%
    08:00 +12°C° 0.1 mm 10 m/S 714 mmHg 63%
    09:00 +12°C° 0.1 mm 12 m/S 714 mmHg 61%
    10:00 +13°C° 0 mm 12 m/S 714 mmHg 56%
    11:00 +14°C° 0 mm 13 m/S 714 mmHg 51%
    12:00 +15°C° 0 mm 13 m/S 714 mmHg 47%
    13:00 +15°C° 0 mm 13 m/S 714 mmHg 46%
    14:00 +17°C° 0 mm 12 m/S 714 mmHg 45%
    15:00 +17°C° 0 mm 12 m/S 714 mmHg 45%
    16:00 +16°C° 0 mm 10 m/S 715 mmHg 48%
    17:00 +15°C° 0 mm 9 m/S 715 mmHg 52%
    18:00 +15°C° 0 mm 7 m/S 715 mmHg 56%
    19:00 +13°C° 0 mm 8 m/S 716 mmHg 57%
    20:00 +13°C° 0 mm 8 m/S 716 mmHg 58%
    21:00 +13°C° 0 mm 8 m/S 716 mmHg 59%
    22:00 +13°C° 0 mm 8 m/S 716 mmHg 59%
    23:00 +12°C° 0 mm 8 m/S 716 mmHg 60%
    Mehr zeigen